Location: Albuquerque Trailhead
(34.7934°N, 106.3736°W)
Time: 16:09:28
(UTC+00:00)

Cosmos 967 Rocket - Pass Details

Date: 20 June 2021
Orbit: 950 x 987 km, 65.8° (Epoch: 27 July)

Event Time Altitude Azimuth Distance (km) Brightness Sun altitude
Rises 05:50:09 0° 330° (NNW) 3,668 8.7 -29.0°
Reaches altitude 10° 05:52:43 10° 329° (NNW) 2,723 7.7 -29.2°
Enters shadow 05:59:05 78° 246° (WSW) 1,002 4.4 -29.6°
